Погода в Ривьера-ди-Улиссе

Италия     41°12′43″N   13°34′18″E
темп.,
°C
ветер,
м/с
пор.,
м/с
влажн.,
%
обл.,
%
осадки,
мм/ч
давл.,
гПа
погр.,
м
17 апреля, сб
сб1723:00+10св3361100 0.0 1013152
02:00+9ссв3360100 0.0 1012131
05:00+8ссв3356100 0.0 1011122
08:00+9ссв3351100 0.0 1011159
11:00+12вюв1240100 0.0 1011540
14:00+12юв4457100 0.1 1011761
17:00+11вюв336697 0.1 1011560
20:00+10зюз117297 0.1 1012227
18 апреля, вс
вс1823:00+9сз2275100 0.0 1013312
02:00+9ссз2384100 0.7 1013188
05:00+9всв2284100 1.1 1012172
08:00+9в3382100 1.5 1013308
11:00+10в3377100 0.1 1014458
14:00+10ю2375100 1.6 1014584
17:00+11юз227437 1.6 1013553
20:00+9ююв128096 2.1 1013294
19 апреля, пн
пн1923:00+8всв228389 0.8 1014118
02:00+8св338558 1.0 1013147
05:00+8ссв3383100 0.0 1013137
08:00+9ссз1177100 0.0 1014158
11:00+11зюз3372100 0.9 1014635
14:00+12з556657 1.4 1014867
17:00+13з676816 0.5 1013787
20:00+10зсз55771 0.8 1014312
20 апреля, вт
вт2023:00+9сз34780 0.1 1016208
02:00+9ссз23793 0.1 1016175
05:00+9св117861 0.1 1015111
08:00+10вюв2280100 0.2 1016182
11:00+12ююв3373100 0.3 1016587
14:00+13ю2366100 0.3 1016758
17:00+13юз2263100 0.0 1015525
20:00+11юв1171100 0.0 1015126
21 апреля, ср
ср2123:00+11всв2271100 0.0 1016128
02:00+11всв227196 0.0 101690
05:00+11св337295 0.0 101588
08:00+12св2271100 0.1 1015132
11:00+11ссв3382100 1.1 1016147
14:00+12вюв4591100 3.3 1014450
17:00+11всв3490100 3.0 1013303
20:00+11всв348674 3.1 1013186